,,PA_Meas_PMT16A,,PR_Meas_QMR101_102,,RH_Meas_QMH101,,SR_Meas_QMS101,,TA_Meas_QMH101,,GenWind,,GenWind,
time,status,PA,status,PR,status,RH,status,SR,status,TA,status,DirAvg,status,SpdAvg,
2016-01-05, 07:36:04,INVALID - VALUE NOT AVAILABLE,0,VALID,0,VALID,103.579,VALID,133.549,VALID,21.6339,INVALID,360,INVALID,0,
2016-01-05, 07:37:04,VALID,920.059,VALID,0,VALID,103.564,VALID,202.312,VALID,21.712,VALID,87,VALID,0,
2016-01-05, 07:38:04,VALID,920.053,VALID,0,VALID,103.564,VALID,219.18,VALID,21.8079,VALID,87,VALID,0,
2016-01-05, 07:39:04,VALID,920.031,VALID,0,VALID,103.274,VALID,229.172,VALID,21.9266,VALID,87,VALID,0,
2016-01-05, 07:40:04,VALID,920.032,VALID,0,VALID,103.023,VALID,239.809,VALID,22.0225,VALID,51,VALID,0,
2016-01-05, 07:41:04,VALID,920.044,VALID,0,VALID,102.779,VALID,224.874,VALID,22.1608,VALID,206,VALID,0,
2016-01-05, 07:42:04,VALID,920.048,VALID,0,VALID,102.581,VALID,132.69,VALID,22.2779,VALID,201,VALID,0,
2016-01-05, 07:43:04,VALID,920.041,VALID,0,VALID,102.085,VALID,171.154,VALID,22.3559,VALID,201,VALID,0,
2016-01-05, 07:44:04,VALID,920.051,VALID,0,VALID,101.567,VALID,197.262,VALID,22.4535,VALID,199,VALID,0,
2016-01-05, 07:45:04,VALID,920.03,VALID,0,VALID,101.064,VALID,260.76,VALID,22.5494,VALID,201,VALID,0,
2016-01-05, 07:46:04,VALID,920.057,VALID,0,VALID,99.3331,VALID,145.798,VALID,22.647,VALID,213,VALID,0,
2016-01-05, 07:47:04,VALID,920.042,VALID,0,VALID,99.9354,VALID,273.438,VALID,22.725,VALID,217,VALID,0,
2016-01-05, 07:48:04,VALID,920.046,VALID,0,VALID,99.9049,VALID,124.632,VALID,22.8421,VALID,217,VALID,0,
2016-01-05, 07:49:04,VALID,920.048,VALID,0,VALID,98.1362,VALID,113.136,VALID,22.9202,VALID,223,VALID,0,
2016-01-05, 07:50:04,VALID,920.049,VALID,0,VALID,96.4591,VALID,99.7054,VALID,22.9397,VALID,222,VALID,0,
2016-01-05, 07:51:04,VALID,920.092,VALID,0,VALID,88.4774,VALID,103.573,VALID,22.9805,VALID,174,VALID,0,
2016-01-05, 07:52:04,VALID,920.067,VALID,0,VALID,84.8867,VALID,107.226,VALID,22.9415,VALID,123,VALID,0,
2016-01-05, 07:53:04,VALID,920.11,VALID,0,VALID,86.6782,VALID,111.309,VALID,22.9024,VALID,156,VALID,0,
2016-01-05, 07:54:04,VALID,920.092,VALID,0,VALID,85.4737,VALID,114.962,VALID,22.8634,VALID,215,VALID,0,
2016-01-05, 07:55:04,VALID,920.125,VALID,0,VALID,85.954,VALID,120.764,VALID,22.8634,VALID,156,VALID,0,
2016-01-05, 07:56:04,VALID,920.158,VALID,0,VALID,87.654,VALID,129.467,VALID,22.9024,VALID,156,VALID,0,
2016-01-05, 07:57:04,VALID,920.171,VALID,0,VALID,87.4101,VALID,143.864,VALID,22.9415,VALID,154,VALID,0,
2016-01-05, 07:58:04,VALID,920.191,VALID,0,VALID,86.9679,VALID,134.731,VALID,23,VALID,152,VALID,0,
2016-01-05, 07:59:04,VALID,920.202,VALID,0,VALID,84.8562,VALID,202.097,VALID,23.0391,VALID,145,VALID,0,
2016-01-05, 08:00:04,VALID,920.199,VALID,0,VALID,87.4177,VALID,210.047,VALID,23.0568,VALID,37,VALID,0,
2016-01-05, 08:01:04,VALID,920.205,VALID,0,VALID,92.3882,VALID,132.367,VALID,23.0976,VALID,49,VALID,0,
2016-01-05, 08:02:04,VALID,920.241,VALID,0,VALID,88.0809,VALID,135.268,VALID,22.9983,VALID,31,VALID,0,
2016-01-05, 08:03:04,VALID,920.278,VALID,0,VALID,91.7783,VALID,136.773,VALID,22.9397,VALID,36,VALID,0,
2016-01-05, 08:04:04,VALID,920.34,VALID,0,VALID,89.1177,VALID,145.046,VALID,22.9415,VALID,32,VALID,0,
2016-01-05, 08:05:04,VALID,920.308,VALID,0,VALID,87.2957,VALID,146.013,VALID,22.9415,VALID,30,VALID,0,
2016-01-05, 08:06:04,VALID,920.367,VALID,0,VALID,87.7684,VALID,153.211,VALID,22.8829,VALID,14,VALID,0,
2016-01-05, 08:07:04,VALID,920.382,VALID,0,VALID,90.5509,VALID,156.327,VALID,22.8226,VALID,54,VALID,0,
2016-01-05, 08:08:04,VALID,920.426,VALID,0,VALID,95.8797,VALID,158.798,VALID,22.7853,VALID,58,VALID,0,
2016-01-05, 08:09:04,VALID,920.449,VALID,0,VALID,92.4263,VALID,158.691,VALID,22.725,VALID,42,VALID,0,
2016-01-05, 08:10:04,VALID,920.463,VALID,0,VALID,93.1886,VALID,159.12,VALID,22.725,VALID,42,VALID,0,
2016-01-05, 08:11:04,VALID,920.491,VALID,0,VALID,91.8545,VALID,153.856,VALID,22.7445,VALID,39,VALID,0,
2016-01-05, 08:12:04,VALID,920.507,VALID,0,VALID,91.9003,VALID,142.145,VALID,22.7836,VALID,44,VALID,0,
2016-01-05, 08:13:04,VALID,920.543,VALID,0,VALID,92.2967,VALID,129.681,VALID,22.8616,VALID,44,VALID,0,
2016-01-05, 08:14:04,VALID,920.555,VALID,0,VALID,92.1061,VALID,116.789,VALID,22.9592,VALID,44,VALID,0,
2016-01-05, 08:15:04,VALID,920.592,VALID,0,VALID,88.9348,VALID,106.259,VALID,23.0373,VALID,47,VALID,0,
2016-01-05, 08:16:04,VALID,920.615,VALID,0,VALID,87.6693,VALID,102.069,VALID,23.0373,VALID,148,VALID,0,
2016-01-05, 08:17:04,VALID,920.632,VALID,0,VALID,89.3769,VALID,101.747,VALID,23.0551,VALID,135,VALID,0,
2016-01-05, 08:18:04,VALID,920.688,VALID,0,VALID,88.1114,VALID,101.532,VALID,23.0373,VALID,131,VALID,0,
2016-01-05, 08:19:04,VALID,920.689,VALID,0,VALID,85.7329,VALID,104.54,VALID,22.9965,VALID,137,VALID,0,
2016-01-05, 08:20:04,VALID,920.716,VALID,0,VALID,87.2271,VALID,111.954,VALID,22.9983,VALID,140,VALID,0,
2016-01-05, 08:21:04,VALID,920.696,VALID,0,VALID,87.3339,VALID,124.095,VALID,22.9983,VALID,149,VALID,0,
2016-01-05, 08:22:04,VALID,920.736,VALID,0,VALID,88.6756,VALID,122.268,VALID,22.977,VALID,150,VALID,0,
2016-01-05, 08:23:04,VALID,920.707,VALID,0,VALID,91.7326,VALID,110.879,VALID,22.9965,VALID,150,VALID,0,
2016-01-05, 08:24:04,VALID,920.697,VALID,0,VALID,90.6424,VALID,103.144,VALID,23.0568,VALID,150,VALID,0,
2016-01-05, 08:25:04,VALID,920.684,VALID,0,VALID,87.6617,VALID,100.672,VALID,23.0551,VALID,88,VALID,0,
2016-01-05, 08:26:04,VALID,920.688,VALID,0,VALID,86.6859,VALID,102.929,VALID,23.0568,VALID,119,VALID,0,
2016-01-05, 08:27:04,VALID,920.677,VALID,0,VALID,84.6123,VALID,105.292,VALID,22.977,VALID,132,VALID,0,
2016-01-05, 08:28:04,VALID,920.68,VALID,0,VALID,86.1522,VALID,113.35,VALID,22.9787,VALID,132,VALID,0,
2016-01-05, 08:29:04,VALID,920.686,VALID,0,VALID,89.8267,VALID,115.069,VALID,22.9965,VALID,132,VALID,0,
2016-01-05, 08:30:04,VALID,920.701,VALID,0,VALID,86.015,VALID,112.169,VALID,23.0178,VALID,132,VALID,0,
2016-01-05, 08:31:04,VALID,920.69,VALID,0,VALID,84.132,VALID,107.656,VALID,22.9983,VALID,132,VALID,0,
2016-01-05, 08:32:04,VALID,920.706,VALID,0,VALID,85.7101,VALID,103.681,VALID,23.0551,VALID,132,VALID,0,
2016-01-05, 08:33:04,VALID,920.757,VALID,0,VALID,85.5805,VALID,108.945,VALID,23.1331,VALID,132,VALID,0,
2016-01-05, 08:34:04,VALID,920.754,VALID,0,VALID,86.3428,VALID,119.26,VALID,23.1935,VALID,132,VALID,0,
2016-01-05, 08:35:04,VALID,920.816,VALID,0,VALID,87.5778,VALID,128.607,VALID,23.1331,VALID,103,VALID,0,
2016-01-05, 08:36:04,VALID,920.809,VALID,0,VALID,88.1114,VALID,128.714,VALID,23.1349,VALID,91,VALID,0,
2016-01-05, 08:37:04,VALID,920.805,VALID,0,VALID,86.8231,VALID,121.409,VALID,23.1154,VALID,75,VALID,0,
2016-01-05, 08:38:04,VALID,920.835,VALID,0,VALID,86.7392,VALID,116.036,VALID,23.1154,VALID,75,VALID,0,
2016-01-05, 08:39:04,VALID,920.865,VALID,0,VALID,85.1764,VALID,114.317,VALID,23.1349,VALID,75,VALID,0,
2016-01-05, 08:40:04,VALID,920.849,VALID,0,VALID,84.5894,VALID,111.631,VALID,23.1722,VALID,75,VALID,0,
2016-01-05, 08:41:04,VALID,920.871,VALID,0,VALID,83.7661,VALID,108.086,VALID,23.213,VALID,75,VALID,0,
2016-01-05, 08:42:04,VALID,920.856,VALID,0,VALID,83.3544,VALID,103.036,VALID,23.2325,VALID,75,VALID,0,
2016-01-05, 08:43:04,VALID,920.869,VALID,0,VALID,83.6517,VALID,98.9533,VALID,23.2307,VALID,75,VALID,0,
2016-01-05, 08:44:04,VALID,920.879,VALID,0,VALID,84.1625,VALID,97.2342,VALID,23.2893,VALID,75,VALID,0,
2016-01-05, 08:45:04,VALID,920.913,VALID,0,VALID,84.0329,VALID,97.7714,VALID,23.3088,VALID,75,VALID,0,
2016-01-05, 08:46:04,VALID,920.92,VALID,0,VALID,84.9172,VALID,97.2342,VALID,23.3674,VALID,75,VALID,0,
2016-01-05, 08:47:04,VALID,920.93,VALID,0,VALID,83.3239,VALID,93.9036,VALID,23.3887,VALID,75,VALID,0,
2016-01-05, 08:48:04,VALID,920.959,VALID,0,VALID,83.2553,VALID,90.6803,VALID,23.449,VALID,75,VALID,0,
2016-01-05, 08:49:04,VALID,920.96,VALID,0,VALID,84.4446,VALID,90.8952,VALID,23.4863,VALID,75,VALID,0,
2016-01-05, 08:50:04,VALID,920.966,VALID,0,VALID,83.6441,VALID,95.9449,VALID,23.3887,VALID,75,VALID,0,
2016-01-05, 08:51:04,VALID,920.995,VALID,0,VALID,83.2401,VALID,100.78,VALID,23.3496,VALID,75,VALID,0,
2016-01-05, 08:52:04,VALID,920.995,VALID,0,VALID,83.4612,VALID,100.995,VALID,23.2893,VALID,75,VALID,0,
2016-01-05, 08:53:04,VALID,921.022,VALID,0,VALID,85.8778,VALID,96.5896,VALID,23.2893,VALID,89,VALID,0,
2016-01-05, 08:54:04,VALID,921.03,VALID,0,VALID,84.01,VALID,90.2506,VALID,23.1527,VALID,104,VALID,0,
2016-01-05, 10:11:04,VALID,921.111,VALID,0,VALID,104,VALID,87.1348,VALID,21.4973,VALID,137,VALID,1.68477,
2016-01-05, 10:12:04,VALID,921.105,VALID,0,VALID,104,VALID,92.1845,VALID,21.5168,VALID,131,VALID,1.48516,
2016-01-05, 10:13:04,VALID,921.083,VALID,0,VALID,103.816,VALID,96.8045,VALID,21.5152,VALID,129,VALID,2.26523,
2016-01-05, 10:14:04,VALID,921.058,VALID,0,VALID,103.61,VALID,101.424,VALID,21.5559,VALID,125,VALID,2.13906,
2016-01-05, 10:15:04,VALID,921.078,VALID,0,VALID,103.556,VALID,107.011,VALID,21.5542,VALID,116,VALID,2.12344,
2016-01-05, 10:16:04,VALID,921.099,VALID,0,VALID,103.64,VALID,114.532,VALID,21.5542,VALID,131,VALID,1.52383,
2016-01-05, 10:17:04,VALID,921.079,VALID,0,VALID,103.732,VALID,125.062,VALID,21.5542,VALID,122,VALID,1.87734,
2016-01-05, 10:18:04,VALID,921.068,VALID,0,VALID,103.884,VALID,136.88,VALID,21.5754,VALID,128,VALID,1.91641,
2016-01-05, 10:19:04,VALID,921.053,VALID,0,VALID,103.869,VALID,148.269,VALID,21.5542,VALID,122,VALID,2.27578,
2016-01-05, 10:20:04,VALID,921.059,VALID,0,VALID,103.785,VALID,159.013,VALID,21.5754,VALID,132,VALID,2.43555,
2016-01-05, 10:21:04,VALID,921.027,VALID,0,VALID,103.366,VALID,169.005,VALID,21.5737,VALID,134,VALID,2.11289,
2016-01-05, 10:22:04,VALID,921.04,VALID,0,VALID,103.556,VALID,176.741,VALID,21.6128,VALID,141,VALID,0.817187,
2016-01-05, 10:23:04,VALID,921.065,VALID,0,VALID,103.785,VALID,181.576,VALID,21.6924,VALID,156,VALID,1.7043,
2016-01-05, 10:24:04,VALID,921.054,VALID,0,VALID,103.778,VALID,186.088,VALID,21.6713,VALID,129,VALID,1.78203,
2016-01-05, 10:25:04,VALID,921.076,VALID,0,VALID,104,VALID,189.956,VALID,21.6908,VALID,115,VALID,1.28984,
2016-01-05, 10:26:04,VALID,921.053,VALID,0,VALID,104,VALID,193.609,VALID,21.7315,VALID,103,VALID,0.733203,
2016-01-05, 10:27:04,VALID,921.044,VALID,0,VALID,103.968,VALID,199.303,VALID,21.7298,VALID,115,VALID,2.18828,
2016-01-05, 10:28:04,VALID,921.055,VALID,0,VALID,104,VALID,208.114,VALID,21.7688,VALID,90,VALID,0.757422,
2016-01-05, 10:29:04,VALID,921.05,VALID,0,VALID,104,VALID,216.601,VALID,21.8274,VALID,77,VALID,1.41133,
2016-01-05, 10:30:04,VALID,921.041,VALID,0,VALID,103.625,VALID,224.122,VALID,21.7883,VALID,116,VALID,1.83516,
2016-01-05, 10:31:04,VALID,921.038,VALID,0.2,VALID,103.564,VALID,229.494,VALID,21.8274,VALID,96,VALID,0.494141,
2016-01-05, 10:32:04,VALID,921.033,VALID,0,VALID,103.724,VALID,234.222,VALID,21.8469,VALID,92,VALID,1.54844,
2016-01-05, 10:33:04,VALID,921.058,VALID,0,VALID,103.595,VALID,236.8,VALID,21.8664,VALID,116,VALID,1.19648,
2016-01-05, 10:34:04,VALID,921.031,VALID,0,VALID,103.778,VALID,236.478,VALID,21.9266,VALID,136,VALID,0.0175781,
2016-01-05, 10:35:04,VALID,921.027,VALID,0,VALID,103.961,VALID,234.329,VALID,21.9444,VALID,75,VALID,0.800781,
2016-01-05, 10:36:04,VALID,921.013,VALID,0,VALID,104,VALID,233.255,VALID,22.0225,VALID,127,VALID,0.737109,
2016-01-05, 10:37:04,VALID,920.996,VALID,0,VALID,104,VALID,234.007,VALID,22.0615,VALID,120,VALID,1.40781,
2016-01-05, 10:38:04,VALID,920.971,VALID,0,VALID,104,VALID,236.693,VALID,22.0615,VALID,101,VALID,1.44141,
2016-01-05, 10:39:04,VALID,920.962,VALID,0,VALID,103.983,VALID,241.205,VALID,22.0615,VALID,101,VALID,1.78477,
2016-01-05, 10:40:04,VALID,920.925,VALID,0,VALID,103.732,VALID,247.544,VALID,22.1005,VALID,133,VALID,2.15859,
2016-01-05, 10:41:04,VALID,920.922,VALID,0,VALID,103.701,VALID,254.313,VALID,22.1201,VALID,111,VALID,0.924609,
2016-01-05, 10:42:04,VALID,920.882,VALID,0,VALID,103.381,VALID,262.264,VALID,22.1005,VALID,128,VALID,1.70391,
2016-01-05, 10:43:04,VALID,920.865,VALID,0,VALID,103.389,VALID,272.793,VALID,22.1396,VALID,129,VALID,1.85352,
2016-01-05, 10:44:04,VALID,920.848,VALID,0,VALID,103.076,VALID,284.074,VALID,22.1201,VALID,138,VALID,2.02305,
2016-01-05, 10:45:04,VALID,920.796,VALID,0,VALID,103.122,VALID,295.893,VALID,22.1201,VALID,127,VALID,1.9125,
2016-01-05, 10:46:04,VALID,920.78,VALID,0,VALID,102.931,VALID,307.282,VALID,22.1005,VALID,140,VALID,2.3707,
2016-01-05, 10:47:04,VALID,920.781,VALID,0,VALID,103.145,VALID,318.67,VALID,22.1591,VALID,109,VALID,1.05898,
2016-01-05, 10:48:04,VALID,920.722,VALID,0,VALID,102.985,VALID,329.952,VALID,22.1184,VALID,121,VALID,2.46953,
2016-01-05, 10:49:04,VALID,920.74,VALID,0,VALID,103.206,VALID,343.06,VALID,22.1786,VALID,134,VALID,2.0375,
2016-01-05, 10:50:04,VALID,920.751,VALID,0,VALID,103.122,VALID,354.126,VALID,22.1786,VALID,97,VALID,1.27188,
2016-01-05, 10:51:04,VALID,920.686,VALID,0,VALID,102.992,VALID,363.366,VALID,22.2371,VALID,141,VALID,1.25469,
2016-01-05, 10:52:04,VALID,920.698,VALID,0,VALID,103.198,VALID,388.4,VALID,22.3152,VALID,110,VALID,1.9207,
2016-01-05, 10:53:04,VALID,920.696,VALID,0,VALID,102.916,VALID,406.45,VALID,22.3916,VALID,130,VALID,2.06914,
2016-01-05, 10:54:04,VALID,920.663,VALID,0,VALID,102.154,VALID,409.673,VALID,22.4323,VALID,122,VALID,2.78437,
2016-01-05, 10:55:04,VALID,920.667,VALID,0,VALID,102.26,VALID,427.938,VALID,22.5299,VALID,106,VALID,0.548437,
2016-01-05, 10:56:04,VALID,920.679,VALID,0,VALID,102.535,VALID,414.615,VALID,22.6062,VALID,132,VALID,1.67969,
2016-01-05, 10:57:04,VALID,920.677,VALID,0,VALID,103.023,VALID,406.557,VALID,22.7818,VALID,111,VALID,0.0121094,
2016-01-05, 10:58:04,VALID,920.751,VALID,0,VALID,101.773,VALID,392.805,VALID,22.8989,VALID,140,VALID,1.88984,
2016-01-05, 10:59:04,VALID,920.739,VALID,0,VALID,100.042,VALID,373.143,VALID,22.8989,VALID,158,VALID,2.33633,
2016-01-05, 11:00:04,VALID,920.745,VALID,0,VALID,100.202,VALID,342.2,VALID,22.9185,VALID,117,VALID,1.78555,
2016-01-05, 11:01:04,VALID,920.769,VALID,0,VALID,99.9049,VALID,331.778,VALID,22.9185,VALID,125,VALID,1.29492,
2016-01-05, 11:02:04,VALID,920.78,VALID,0,VALID,99.76,VALID,312.869,VALID,22.9185,VALID,120,VALID,1.41914,
2016-01-05, 11:03:04,VALID,920.781,VALID,0,VALID,97.8923,VALID,297.719,VALID,22.8014,VALID,127,VALID,1.36758,
2016-01-05, 11:04:04,VALID,920.753,VALID,0,VALID,100.538,VALID,291.058,VALID,22.8794,VALID,85,VALID,1.32187,
2016-01-05, 11:05:04,VALID,920.735,VALID,0,VALID,99.2874,VALID,291.595,VALID,22.8989,VALID,89,VALID,0,
2016-01-05, 11:06:04,VALID,920.684,VALID,0,VALID,99.8972,VALID,297.505,VALID,22.9575,VALID,112,VALID,0,
2016-01-05, 11:07:04,VALID,920.64,VALID,0,VALID,97.3281,VALID,305.133,VALID,22.9948,VALID,159,VALID,0,
2016-01-05, 11:08:04,VALID,920.596,VALID,0,VALID,94.4617,VALID,318.563,VALID,23.0959,VALID,176,VALID,0,
2016-01-05, 11:09:04,VALID,920.536,VALID,0,VALID,93.6537,VALID,330.059,VALID,23.1349,VALID,144,VALID,0,
2016-01-05, 11:10:04,VALID,920.431,VALID,0,VALID,87.128,VALID,339.514,VALID,23.0959,VALID,132,VALID,0,
2016-01-05, 11:11:04,VALID,920.406,VALID,0,VALID,91.9613,VALID,350.043,VALID,23.2112,VALID,192,VALID,0,
2016-01-05, 11:12:04,VALID,920.339,VALID,0,VALID,91.3895,VALID,370.457,VALID,23.2875,VALID,175,VALID,1.59727,
2016-01-05, 11:13:04,VALID,920.295,VALID,0,VALID,91.6945,VALID,399.789,VALID,23.3265,VALID,186,VALID,0.230859,
2016-01-05, 11:14:04,VALID,920.263,VALID,0,VALID,88.7442,VALID,475.964,VALID,23.307,VALID,158,VALID,1.71563,
2016-01-05, 11:15:04,VALID,920.229,VALID,0,VALID,92.472,VALID,462.964,VALID,23.3265,VALID,177,VALID,0,
2016-01-05, 11:16:04,VALID,920.203,VALID,0,VALID,91.9613,VALID,440.724,VALID,23.4632,VALID,171,VALID,1.05742,
2016-01-05, 11:17:04,VALID,920.224,VALID,0,VALID,87.654,VALID,428.368,VALID,23.5217,VALID,162,VALID,0.785156,
2016-01-05, 11:18:04,VALID,920.193,VALID,0,VALID,84.9782,VALID,444.054,VALID,23.5626,VALID,177,VALID,0.997656,
2016-01-05, 11:19:04,VALID,920.222,VALID,0,VALID,85.4051,VALID,519.585,VALID,23.5626,VALID,172,VALID,0,
2016-01-05, 11:20:04,VALID,920.225,VALID,0,VALID,85.4585,VALID,503.899,VALID,23.6016,VALID,149,VALID,0,
2016-01-05, 11:21:04,VALID,920.2,VALID,0,VALID,84.9858,VALID,469.625,VALID,23.6602,VALID,140,VALID,1.46602,
2016-01-05, 11:22:04,VALID,920.224,VALID,0,VALID,85.2908,VALID,439.434,VALID,23.6406,VALID,197,VALID,1.44727,
2016-01-05, 11:23:04,VALID,920.245,VALID,0,VALID,84.5132,VALID,407.417,VALID,23.5803,VALID,159,VALID,0,
2016-01-05, 11:24:04,VALID,920.23,VALID,0,VALID,85.1536,VALID,376.796,VALID,23.6016,VALID,141,VALID,0,
2016-01-05, 11:25:04,VALID,920.202,VALID,0,VALID,84.902,VALID,400.111,VALID,23.6406,VALID,118,VALID,0,
2016-01-05, 11:26:04,VALID,920.167,VALID,0,VALID,87.2119,VALID,424.715,VALID,23.7382,VALID,95,VALID,0,
2016-01-05, 11:27:04,VALID,920.15,VALID,0,VALID,92.2814,VALID,403.764,VALID,23.8536,VALID,79,VALID,0.009375,
2016-01-05, 11:28:04,VALID,920.124,VALID,0,VALID,88.7899,VALID,414.83,VALID,24.0488,VALID,72,VALID,0,
2016-01-05, 11:29:04,VALID,920.105,VALID,0,VALID,84.2083,VALID,411.285,VALID,24.2049,VALID,65,VALID,0.740234,
2016-01-05, 11:30:04,VALID,920.096,VALID,0,VALID,82.3176,VALID,381.416,VALID,24.2654,VALID,155,VALID,0,
2016-01-05, 11:31:04,VALID,920.067,VALID,0,VALID,82.4549,VALID,334.035,VALID,24.2635,VALID,98,VALID,0.954297,
2016-01-05, 11:32:04,VALID,920.028,VALID,0,VALID,80.6557,VALID,317.381,VALID,24.2049,VALID,168,VALID,1.54648,
2016-01-05, 11:33:04,VALID,920.07,VALID,0,VALID,82.6912,VALID,266.669,VALID,24.1659,VALID,145,VALID,0,
2016-01-05, 11:34:04,VALID,920.034,VALID,0,VALID,81.9593,VALID,236.693,VALID,24.1677,VALID,167,VALID,0,
2016-01-05, 11:35:04,VALID,920.027,VALID,0,VALID,81.3571,VALID,224.874,VALID,24.2049,VALID,152,VALID,0,
2016-01-05, 11:36:04,VALID,920.012,VALID,0,VALID,80.8311,VALID,231.106,VALID,24.2049,VALID,182,VALID,0,
2016-01-05, 11:37:04,VALID,920.011,VALID,0,VALID,81.6544,VALID,222.726,VALID,24.2635,VALID,181,VALID,0,
2016-01-05, 11:38:04,VALID,920.009,VALID,0,VALID,81.258,VALID,213.378,VALID,24.3416,VALID,181,VALID,0,
2016-01-05, 11:39:04,VALID,919.99,VALID,0,VALID,80.6634,VALID,210.8,VALID,24.3221,VALID,181,VALID,0,
2016-01-05, 11:40:04,VALID,919.988,VALID,0,VALID,81.4105,VALID,216.386,VALID,24.3221,VALID,56,VALID,0.00273437,
2016-01-05, 11:41:04,VALID,919.997,VALID,0,VALID,81.3266,VALID,218.858,VALID,24.2635,VALID,43,VALID,0,
2016-01-05, 11:42:04,VALID,919.97,VALID,0,VALID,80.2822,VALID,206.394,VALID,24.1854,VALID,46,VALID,0,
2016-01-05, 11:43:04,VALID,919.978,VALID,0,VALID,82.1499,VALID,215.312,VALID,24.1854,VALID,36,VALID,0.0015625,
2016-01-05, 11:44:04,VALID,919.94,VALID,0,VALID,81.3876,VALID,248.619,VALID,24.2049,VALID,129,VALID,0.100781,
2016-01-05, 11:45:04,VALID,919.921,VALID,0,VALID,81.7688,VALID,301.48,VALID,24.2245,VALID,129,VALID,0,
2016-01-05, 11:46:04,VALID,919.91,VALID,0,VALID,80.61,VALID,320.282,VALID,24.283,VALID,129,VALID,0,
2016-01-05, 11:47:04,VALID,919.884,VALID,0,VALID,80.7777,VALID,320.175,VALID,24.4392,VALID,129,VALID,0,
2016-01-05, 11:48:04,VALID,919.846,VALID,0,VALID,80.2517,VALID,296.967,VALID,24.535,VALID,129,VALID,0,
2016-01-05, 11:49:04,VALID,919.865,VALID,0,VALID,79.6037,VALID,267.421,VALID,24.6735,VALID,129,VALID,0,
2016-01-05, 11:50:04,VALID,919.872,VALID,0,VALID,78.4831,VALID,243.891,VALID,24.7321,VALID,181,VALID,0,
2016-01-05, 11:51:04,VALID,919.902,VALID,0,VALID,78.1553,VALID,230.354,VALID,24.693,VALID,200,VALID,0,
2016-01-05, 11:52:04,VALID,919.913,VALID,0,VALID,77.1261,VALID,233.147,VALID,24.7126,VALID,196,VALID,0,
2016-01-05, 11:53:04,VALID,919.878,VALID,0,VALID,77.6445,VALID,240.561,VALID,24.6345,VALID,216,VALID,0,
2016-01-05, 11:54:04,VALID,919.864,VALID,0,VALID,79.2073,VALID,252.487,VALID,24.5954,VALID,216,VALID,0,
2016-01-05, 11:55:04,VALID,919.874,VALID,0,VALID,79.1997,VALID,274.19,VALID,24.5759,VALID,216,VALID,0,
2016-01-05, 11:56:04,VALID,919.846,VALID,0,VALID,79.6799,VALID,323.72,VALID,24.654,VALID,216,VALID,0,
2016-01-05, 11:57:04,VALID,919.831,VALID,0,VALID,79.9696,VALID,300.083,VALID,24.5954,VALID,216,VALID,0,
2016-01-05, 11:58:04,VALID,919.803,VALID,0,VALID,83.9872,VALID,303.306,VALID,24.6149,VALID,215,VALID,0,
2016-01-05, 11:59:04,VALID,919.785,VALID,0,VALID,81.8907,VALID,287.62,VALID,24.7126,VALID,216,VALID,0,
2016-01-05, 12:00:04,VALID,919.757,VALID,0,VALID,82.249,VALID,255.71,VALID,24.8297,VALID,215,VALID,0,
2016-01-05, 12:01:04,VALID,919.782,VALID,0,VALID,82.2719,VALID,230.461,VALID,24.8278,VALID,215,VALID,0,
2016-01-05, 12:02:04,VALID,919.769,VALID,0,VALID,81.4867,VALID,211.014,VALID,24.9078,VALID,215,VALID,0,
2016-01-05, 12:03:04,VALID,919.737,VALID,0,VALID,81.258,VALID,203.279,VALID,24.945,VALID,215,VALID,0,
2016-01-05, 12:04:04,VALID,919.722,VALID,0,VALID,80.9302,VALID,225.304,VALID,25.0445,VALID,215,VALID,0,
2016-01-05, 12:05:04,VALID,919.686,VALID,0,VALID,81.8907,VALID,244.536,VALID,24.9469,VALID,215,VALID,0,
2016-01-05, 12:06:04,VALID,919.684,VALID,0,VALID,81.6392,VALID,222.726,VALID,24.8707,VALID,214,VALID,0,
2016-01-05, 12:07:04,VALID,919.638,VALID,0,VALID,82.8665,VALID,233.255,VALID,24.8316,VALID,212,VALID,0,
2016-01-05, 12:08:04,VALID,919.622,VALID,0,VALID,79.3826,VALID,239.164,VALID,24.7321,VALID,218,VALID,0,
2016-01-05, 12:09:04,VALID,919.614,VALID,0,VALID,79.7181,VALID,242.602,VALID,24.6168,VALID,218,VALID,0,
2016-01-05, 12:10:04,VALID,919.602,VALID,0,VALID,82.2262,VALID,265.917,VALID,24.5759,VALID,218,VALID,0,
2016-01-05, 12:11:04,VALID,919.577,VALID,0,VALID,83.141,VALID,262.156,VALID,24.5368,VALID,218,VALID,0,
2016-01-05, 12:12:04,VALID,919.588,VALID,0,VALID,82.1804,VALID,195.758,VALID,24.5564,VALID,218,VALID,0,
2016-01-05, 12:13:04,VALID,919.604,VALID,0,VALID,82.5921,VALID,170.831,VALID,24.6363,VALID,218,VALID,0,
2016-01-05, 12:14:04,VALID,919.599,VALID,0,VALID,83.08,VALID,161.806,VALID,24.6168,VALID,218,VALID,0,
2016-01-05, 12:15:04,VALID,919.568,VALID,0,VALID,81.9517,VALID,158.798,VALID,24.4801,VALID,218,VALID,0,
2016-01-05, 12:16:04,VALID,919.588,VALID,0,VALID,83.6365,VALID,160.839,VALID,24.4197,VALID,218,VALID,0,
2016-01-05, 12:17:04,VALID,919.566,VALID,0,VALID,83.0038,VALID,153.641,VALID,24.402,VALID,218,VALID,0,
2016-01-05, 12:18:04,VALID,919.559,VALID,0,VALID,83.9567,VALID,141.715,VALID,24.402,VALID,218,VALID,0,
2016-01-05, 12:19:04,VALID,919.55,VALID,0,VALID,84.7724,VALID,127.962,VALID,24.363,VALID,218,VALID,0,
2016-01-05, 12:20:04,VALID,919.5,VALID,0,VALID,87.5321,VALID,112.491,VALID,24.3416,VALID,219,VALID,0,
2016-01-05, 12:21:04,VALID,919.525,VALID,0,VALID,87.9361,VALID,99.4905,VALID,24.3416,VALID,218,VALID,0,
2016-01-05, 12:35:04,VALID,919.46,VALID,0,VALID,99.8058,VALID,106.797,VALID,23.504,VALID,67,VALID,0,
2016-01-05, 12:36:04,VALID,919.452,VALID,0,VALID,99.7905,VALID,118.83,VALID,23.4241,VALID,67,VALID,0,
2016-01-05, 12:37:04,VALID,919.439,VALID,0,VALID,100.317,VALID,134.731,VALID,23.3869,VALID,31,VALID,0.167187,
2016-01-05, 12:38:04,VALID,919.406,VALID,0,VALID,101.186,VALID,152.029,VALID,23.3656,VALID,40,VALID,0,
2016-01-05, 12:39:04,VALID,919.396,VALID,0,VALID,100.606,VALID,165.997,VALID,23.2893,VALID,41,VALID,0,
2016-01-05, 12:40:04,VALID,919.412,VALID,0,VALID,101.186,VALID,175.666,VALID,23.3283,VALID,36,VALID,0,
2016-01-05, 12:41:04,VALID,919.368,VALID,0,VALID,100.827,VALID,176.203,VALID,23.3283,VALID,18,VALID,0,
2016-01-05, 12:42:04,VALID,919.364,VALID,0,VALID,100.37,VALID,172.55,VALID,23.3478,VALID,1,VALID,0,
2016-01-05, 12:43:04,VALID,919.377,VALID,0,VALID,100.721,VALID,171.046,VALID,23.3869,VALID,34,VALID,0,
2016-01-05, 12:44:04,VALID,919.381,VALID,0,VALID,101.277,VALID,169.757,VALID,23.465,VALID,9,VALID,0,
2016-01-05, 12:45:04,VALID,919.367,VALID,0,VALID,101.132,VALID,163.955,VALID,23.543,VALID,15,VALID,0,
2016-01-05, 12:46:04,VALID,919.384,VALID,0,VALID,100.926,VALID,155.467,VALID,23.5626,VALID,7,VALID,0,
2016-01-05, 12:47:04,VALID,919.364,VALID,0,VALID,97.7856,VALID,150.31,VALID,23.5217,VALID,33,VALID,0.369141,
2016-01-05, 12:48:04,VALID,919.346,VALID,0,VALID,98.8452,VALID,150.525,VALID,23.5821,VALID,30,VALID,0.128906,